User: anonymous   Login
Location: LDNL
(36.4545°S, 141.6685°E)
Time: 22:47:05
(UTC+11:00)
Language:

ISS - Orbit

View from above orbital plane
View from above orbital plane
View from above satellite
View from above satellite

Ground track
Ground track

The orbit data is extracted from the following two-line orbital elements,

1 25544U 98067A   22022.21725874 -.00000457  00000-0  00000+0 0  9990
2 25544  51.6450 339.4639 0006743  47.7199  88.2449 15.49577997322541
Epoch (UTC): 22 January 2022 05:12:51
Eccentricity: 0.0006743
inclination: 51.6450°
perigee height: 413 km
apogee height: 422 km
right ascension of ascending node: 339.4639°
argument of perigee: 47.7199°
revolutions per day: 15.49577997
mean anomaly at epoch: 88.2449°
orbit number at epoch: 32254

The dashed part of the orbit path shows where the satellite is in the earth's shadow,  

DLR